Year,Month,Day,Hour,Minute,Value (Times are PST for windspeed in km/hr)
2012,02,25,00,00,1.40
2012,02,25,00,01,2.90
2012,02,25,00,02,4.10
2012,02,25,00,03,4.80
2012,02,25,00,04,3.70
2012,02,25,00,05,2.00
2012,02,25,00,06,0.80
2012,02,25,00,07,0.20
2012,02,25,00,08,0.70
2012,02,25,00,09,1.90
2012,02,25,00,10,0.50
2012,02,25,00,11,3.50
2012,02,25,00,12,3.20
2012,02,25,00,13,0.70
2012,02,25,00,14,0.90
2012,02,25,00,15,3.70
2012,02,25,00,16,7.80
2012,02,25,00,17,3.10
2012,02,25,00,18,4.30
2012,02,25,00,19,6.90
2012,02,25,00,20,3.80
2012,02,25,00,21,6.40
2012,02,25,00,22,4.60
2012,02,25,00,23,9.70
2012,02,25,00,24,6.80
2012,02,25,00,25,5.50
2012,02,25,00,26,11.30
2012,02,25,00,27,7.90
2012,02,25,00,28,5.60
2012,02,25,00,29,5.60
2012,02,25,00,30,5.10
2012,02,25,00,31,8.20
2012,02,25,00,32,8.10
2012,02,25,00,33,8.40
2012,02,25,00,34,7.30
2012,02,25,00,35,6.80
2012,02,25,00,36,7.80
2012,02,25,00,37,5.80
2012,02,25,00,38,10.50
2012,02,25,00,39,10.00
2012,02,25,00,40,7.30
2012,02,25,00,41,12.80
2012,02,25,00,42,10.20
2012,02,25,00,43,4.20
2012,02,25,00,44,6.70
2012,02,25,00,45,7.70
2012,02,25,00,46,14.20
2012,02,25,00,47,9.70
2012,02,25,00,48,4.80
2012,02,25,00,49,6.90
2012,02,25,00,50,9.30
2012,02,25,00,51,13.50
2012,02,25,00,52,14.40
2012,02,25,00,53,13.70
2012,02,25,00,54,10.50
2012,02,25,00,55,11.50
2012,02,25,00,56,15.60
2012,02,25,00,57,10.20
2012,02,25,00,58,14.90
2012,02,25,00,59,10.80
2012,02,25,01,00,8.00
2012,02,25,01,01,14.40
2012,02,25,01,02,13.10
2012,02,25,01,03,12.10
2012,02,25,01,04,11.60
2012,02,25,01,05,11.70
2012,02,25,01,06,12.10
2012,02,25,01,07,12.10
2012,02,25,01,08,9.10
2012,02,25,01,09,10.20
2012,02,25,01,10,18.30
2012,02,25,01,11,15.80
2012,02,25,01,12,10.00
2012,02,25,01,13,13.60
2012,02,25,01,14,8.30
2012,02,25,01,15,8.40
2012,02,25,01,16,10.50
2012,02,25,01,17,9.40
2012,02,25,01,18,8.70
2012,02,25,01,19,8.90
2012,02,25,01,20,12.60
2012,02,25,01,21,16.20
2012,02,25,01,22,7.20
2012,02,25,01,23,12.30
2012,02,25,01,24,11.60
2012,02,25,01,25,12.10
2012,02,25,01,26,12.60
2012,02,25,01,27,7.50
2012,02,25,01,28,8.90
2012,02,25,01,29,9.60
2012,02,25,01,30,6.40
2012,02,25,01,31,16.10
2012,02,25,01,32,14.10
2012,02,25,01,33,11.40
2012,02,25,01,34,7.50
2012,02,25,01,35,14.70
2012,02,25,01,36,11.60
2012,02,25,01,37,6.40
2012,02,25,01,38,15.50
2012,02,25,01,39,19.50
2012,02,25,01,40,14.80
2012,02,25,01,41,14.40
2012,02,25,01,42,19.10
2012,02,25,01,43,18.00
2012,02,25,01,44,13.10
2012,02,25,01,45,13.00
2012,02,25,01,46,12.60
2012,02,25,01,47,8.20
2012,02,25,01,48,13.70
2012,02,25,01,49,11.20
2012,02,25,01,50,13.00
2012,02,25,01,51,15.40
2012,02,25,01,52,21.60
2012,02,25,01,53,12.80
2012,02,25,01,54,14.30
2012,02,25,01,55,7.50
2012,02,25,01,56,14.50
2012,02,25,01,57,13.60
2012,02,25,01,58,9.70
2012,02,25,01,59,15.30
2012,02,25,02,00,9.10
2012,02,25,02,01,14.60
2012,02,25,02,02,19.50
2012,02,25,02,03,13.00
2012,02,25,02,04,20.10
2012,02,25,02,05,18.60
2012,02,25,02,06,12.40
2012,02,25,02,07,19.50
2012,02,25,02,08,10.60
2012,02,25,02,09,22.90
2012,02,25,02,10,19.70
2012,02,25,02,11,19.70
2012,02,25,02,12,20.30
2012,02,25,02,13,10.90
2012,02,25,02,14,22.20
2012,02,25,02,15,13.80
2012,02,25,02,16,8.90
2012,02,25,02,17,12.20
2012,02,25,02,18,19.00
2012,02,25,02,19,12.20
2012,02,25,02,20,11.70
2012,02,25,02,21,6.70
2012,02,25,02,22,11.30
2012,02,25,02,23,10.60
2012,02,25,02,24,15.80
2012,02,25,02,25,12.70
2012,02,25,02,26,12.50
2012,02,25,02,27,12.90
2012,02,25,02,28,10.40
2012,02,25,02,29,11.20
2012,02,25,02,30,7.20
2012,02,25,02,31,13.70
2012,02,25,02,32,11.30
2012,02,25,02,33,15.90
2012,02,25,02,34,17.70
2012,02,25,02,35,12.60
2012,02,25,02,36,13.60
2012,02,25,02,37,8.50
2012,02,25,02,38,5.90
2012,02,25,02,39,13.90
2012,02,25,02,40,21.40
2012,02,25,02,41,15.60
2012,02,25,02,42,24.80
2012,02,25,02,43,20.00
2012,02,25,02,44,12.60
2012,02,25,02,45,13.20
2012,02,25,02,46,24.30
2012,02,25,02,47,14.60
2012,02,25,02,48,9.30
2012,02,25,02,49,14.80
2012,02,25,02,50,20.50
2012,02,25,02,51,21.50
2012,02,25,02,52,14.10
2012,02,25,02,53,18.40
2012,02,25,02,54,25.10
2012,02,25,02,55,18.70
2012,02,25,02,56,15.30
2012,02,25,02,57,10.20
2012,02,25,02,58,10.30
2012,02,25,02,59,20.10
2012,02,25,03,00,16.60
2012,02,25,03,01,18.90
2012,02,25,03,02,24.10
2012,02,25,03,03,26.90
2012,02,25,03,04,22.90
2012,02,25,03,05,23.60
2012,02,25,03,06,18.00
2012,02,25,03,07,20.80
2012,02,25,03,08,14.40
2012,02,25,03,09,21.60
2012,02,25,03,10,17.40
2012,02,25,03,11,22.60
2012,02,25,03,12,15.80
2012,02,25,03,13,10.70
2012,02,25,03,14,11.70
2012,02,25,03,15,25.10
2012,02,25,03,16,17.10
2012,02,25,03,17,24.40
2012,02,25,03,18,17.40
2012,02,25,03,19,26.10
2012,02,25,03,20,13.60
2012,02,25,03,21,16.10
2012,02,25,03,22,20.60
2012,02,25,03,23,21.10
2012,02,25,03,24,17.00
2012,02,25,03,25,11.80
2012,02,25,03,26,20.80
2012,02,25,03,27,15.90
2012,02,25,03,28,13.80
2012,02,25,03,29,15.70
2012,02,25,03,30,18.90
2012,02,25,03,31,22.60
2012,02,25,03,32,16.30
2012,02,25,03,33,19.60
2012,02,25,03,34,16.00
2012,02,25,03,35,13.80
2012,02,25,03,36,19.50
2012,02,25,03,37,19.60
2012,02,25,03,38,22.10
2012,02,25,03,39,20.80
2012,02,25,03,40,9.80
2012,02,25,03,41,18.50
2012,02,25,03,42,15.40
2012,02,25,03,43,12.30
2012,02,25,03,44,12.60
2012,02,25,03,45,24.50
2012,02,25,03,46,20.20
2012,02,25,03,47,11.90
2012,02,25,03,48,14.60
2012,02,25,03,49,9.20
2012,02,25,03,50,18.30
2012,02,25,03,51,21.10
2012,02,25,03,52,11.50
2012,02,25,03,53,23.80
2012,02,25,03,54,16.90
2012,02,25,03,55,17.20
2012,02,25,03,56,13.20
2012,02,25,03,57,15.30
2012,02,25,03,58,29.40
2012,02,25,03,59,13.40
2012,02,25,04,00,15.00
2012,02,25,04,01,19.80
2012,02,25,04,02,19.00
2012,02,25,04,03,24.10
2012,02,25,04,04,33.90
2012,02,25,04,05,24.20
2012,02,25,04,06,13.40
2012,02,25,04,07,11.30
2012,02,25,04,08,18.10
2012,02,25,04,09,13.80
2012,02,25,04,10,16.10
2012,02,25,04,11,19.70
2012,02,25,04,12,25.60
2012,02,25,04,13,14.70
2012,02,25,04,14,19.90
2012,02,25,04,15,21.10
2012,02,25,04,16,18.00
2012,02,25,04,17,18.70
2012,02,25,04,18,20.60
2012,02,25,04,19,19.60
2012,02,25,04,20,16.80
2012,02,25,04,21,19.30
2012,02,25,04,22,25.00
2012,02,25,04,23,13.20
2012,02,25,04,24,8.20
2012,02,25,04,25,15.80
2012,02,25,04,26,7.50
2012,02,25,04,27,16.60
2012,02,25,04,28,26.40
2012,02,25,04,29,15.20
2012,02,25,04,30,13.50
2012,02,25,04,31,14.60
2012,02,25,04,32,24.90
2012,02,25,04,33,17.60
2012,02,25,04,34,15.50
2012,02,25,04,35,9.90
2012,02,25,04,36,18.20
2012,02,25,04,37,19.80
2012,02,25,04,38,20.30
2012,02,25,04,39,20.50
2012,02,25,04,40,13.80
2012,02,25,04,41,21.90
2012,02,25,04,42,16.70
2012,02,25,04,43,25.60
2012,02,25,04,44,20.70
2012,02,25,04,45,23.00
2012,02,25,04,46,17.50
2012,02,25,04,47,13.40
2012,02,25,04,48,15.90
2012,02,25,04,49,18.30
2012,02,25,04,50,21.40
2012,02,25,04,51,16.90
2012,02,25,04,52,19.00
2012,02,25,04,53,14.60
2012,02,25,04,54,13.40
2012,02,25,04,55,20.90
2012,02,25,04,56,18.50
2012,02,25,04,57,17.40
2012,02,25,04,58,10.60
2012,02,25,04,59,19.40
2012,02,25,05,00,16.50
2012,02,25,05,01,20.10
2012,02,25,05,02,14.10
2012,02,25,05,03,25.30
2012,02,25,05,04,23.00
2012,02,25,05,05,24.10
2012,02,25,05,06,20.90
2012,02,25,05,07,24.60
2012,02,25,05,08,18.90
2012,02,25,05,09,23.20
2012,02,25,05,10,21.00
2012,02,25,05,11,24.20
2012,02,25,05,12,22.00
2012,02,25,05,13,18.30
2012,02,25,05,14,7.70
2012,02,25,05,15,14.30
2012,02,25,05,16,14.40
2012,02,25,05,17,17.90
2012,02,25,05,18,13.40
2012,02,25,05,19,10.30
2012,02,25,05,20,13.10
2012,02,25,05,21,12.50
2012,02,25,05,22,14.80
2012,02,25,05,23,13.40
2012,02,25,05,24,13.40
2012,02,25,05,25,13.00
2012,02,25,05,26,13.70
2012,02,25,05,27,10.50
2012,02,25,05,28,9.20
2012,02,25,05,29,22.30
2012,02,25,05,30,15.00
2012,02,25,05,31,15.60
2012,02,25,05,32,12.10
2012,02,25,05,33,17.60
2012,02,25,05,34,11.70
2012,02,25,05,35,10.90
2012,02,25,05,36,7.50
2012,02,25,05,37,11.10
2012,02,25,05,38,17.20
2012,02,25,05,39,6.20
2012,02,25,05,40,15.90
2012,02,25,05,41,13.80
2012,02,25,05,42,5.10
2012,02,25,05,43,10.80
2012,02,25,05,44,10.30
2012,02,25,05,45,8.20
2012,02,25,05,46,14.80
2012,02,25,05,47,11.90
2012,02,25,05,48,15.90
2012,02,25,05,49,20.00
2012,02,25,05,50,15.10
2012,02,25,05,51,22.70
2012,02,25,05,52,18.20
2012,02,25,05,53,15.40
2012,02,25,05,54,16.70
2012,02,25,05,55,11.60
2012,02,25,05,56,9.70
2012,02,25,05,57,11.80
2012,02,25,05,58,3.30
2012,02,25,05,59,3.90
2012,02,25,06,00,11.80
2012,02,25,06,01,9.80
2012,02,25,06,02,7.00
2012,02,25,06,03,6.80
2012,02,25,06,04,6.50
2012,02,25,06,05,5.30
2012,02,25,06,06,9.30
2012,02,25,06,07,12.10
2012,02,25,06,08,14.20
2012,02,25,06,09,6.10
2012,02,25,06,10,9.30
2012,02,25,06,11,5.60
2012,02,25,06,12,5.50
2012,02,25,06,13,7.90
2012,02,25,06,14,13.10
2012,02,25,06,15,14.90
2012,02,25,06,16,13.50
2012,02,25,06,17,7.60
2012,02,25,06,18,19.30
2012,02,25,06,19,17.30
2012,02,25,06,20,10.40
2012,02,25,06,21,10.50
2012,02,25,06,22,9.30
2012,02,25,06,23,14.00
2012,02,25,06,24,10.80
2012,02,25,06,25,7.40
2012,02,25,06,26,8.10
2012,02,25,06,27,4.20
2012,02,25,06,28,5.00
2012,02,25,06,29,3.80
2012,02,25,06,30,12.40
2012,02,25,06,31,8.00
2012,02,25,06,32,7.20
2012,02,25,06,33,6.50
2012,02,25,06,34,15.40
2012,02,25,06,35,7.70
2012,02,25,06,36,11.90
2012,02,25,06,37,7.90
2012,02,25,06,38,7.20
2012,02,25,06,39,14.60
2012,02,25,06,40,5.40
2012,02,25,06,41,2.10
2012,02,25,06,42,13.00
2012,02,25,06,43,12.30
2012,02,25,06,44,6.10
2012,02,25,06,45,3.50
2012,02,25,06,46,6.90
2012,02,25,06,47,10.30
2012,02,25,06,48,10.40
2012,02,25,06,49,5.40
2012,02,25,06,50,6.80
2012,02,25,06,51,7.90
2012,02,25,06,52,11.30
2012,02,25,06,53,6.00
2012,02,25,06,54,6.30
2012,02,25,06,55,0.50
2012,02,25,06,56,1.40
2012,02,25,06,57,0.00
2012,02,25,06,58,2.30
2012,02,25,06,59,3.00
2012,02,25,07,00,5.50
2012,02,25,07,01,7.50
2012,02,25,07,02,4.80
2012,02,25,07,03,2.70
2012,02,25,07,04,2.10
2012,02,25,07,05,2.50
2012,02,25,07,06,3.00
2012,02,25,07,07,2.80
2012,02,25,07,08,3.60
2012,02,25,07,09,0.50
2012,02,25,07,10,0.10
2012,02,25,07,11,0.00
2012,02,25,07,12,0.00
2012,02,25,07,13,1.30
2012,02,25,07,14,1.40
2012,02,25,07,15,0.70
2012,02,25,07,16,0.60
2012,02,25,07,17,1.30
2012,02,25,07,18,0.60
2012,02,25,07,19,2.40
2012,02,25,07,20,0.30
2012,02,25,07,21,3.20
2012,02,25,07,22,0.00
2012,02,25,07,23,1.40
2012,02,25,07,24,1.30
2012,02,25,07,25,1.60
2012,02,25,07,26,4.60
2012,02,25,07,27,7.00
2012,02,25,07,28,4.70
2012,02,25,07,29,2.10
2012,02,25,07,30,3.10
2012,02,25,07,31,1.40
2012,02,25,07,32,1.10
2012,02,25,07,33,3.30
2012,02,25,07,34,9.10
2012,02,25,07,35,6.40
2012,02,25,07,36,10.20
2012,02,25,07,37,2.30
2012,02,25,07,38,2.70
2012,02,25,07,39,3.90
2012,02,25,07,40,2.10
2012,02,25,07,41,1.10
2012,02,25,07,42,4.90
2012,02,25,07,43,0.90
2012,02,25,07,44,0.50
2012,02,25,07,45,1.10
2012,02,25,07,46,9.90
2012,02,25,07,47,8.60
2012,02,25,07,48,10.90
2012,02,25,07,49,10.10
2012,02,25,07,50,7.60
2012,02,25,07,51,1.90
2012,02,25,07,52,1.20
2012,02,25,07,53,2.20
2012,02,25,07,54,2.30
2012,02,25,07,55,3.00
2012,02,25,07,56,5.80
2012,02,25,07,57,6.90
2012,02,25,07,58,2.40
2012,02,25,07,59,5.20
2012,02,25,08,00,2.30
2012,02,25,08,01,6.10
2012,02,25,08,02,7.60
2012,02,25,08,03,9.30
2012,02,25,08,04,3.50
2012,02,25,08,05,2.90
2012,02,25,08,06,2.60
2012,02,25,08,07,5.60
2012,02,25,08,08,12.10
2012,02,25,08,09,5.20
2012,02,25,08,10,5.60
2012,02,25,08,11,3.10
2012,02,25,08,12,11.30
2012,02,25,08,13,11.50
2012,02,25,08,14,6.40
2012,02,25,08,15,4.60
2012,02,25,08,16,5.10
2012,02,25,08,17,3.60
2012,02,25,08,18,4.00
2012,02,25,08,19,6.30
2012,02,25,08,20,6.60
2012,02,25,08,21,5.10
2012,02,25,08,22,11.70
2012,02,25,08,23,6.80
2012,02,25,08,24,5.10
2012,02,25,08,25,5.60
2012,02,25,08,26,8.50
2012,02,25,08,27,14.90
2012,02,25,08,28,6.50
2012,02,25,08,29,5.00
2012,02,25,08,30,2.30
2012,02,25,08,31,7.20
2012,02,25,08,32,10.50
2012,02,25,08,33,7.70
2012,02,25,08,34,6.40
2012,02,25,08,35,16.50
2012,02,25,08,36,15.80
2012,02,25,08,37,15.90
2012,02,25,08,38,15.70
2012,02,25,08,39,14.60
2012,02,25,08,40,5.10
2012,02,25,08,41,10.20
2012,02,25,08,42,8.20
2012,02,25,08,43,11.50
2012,02,25,08,44,5.00
2012,02,25,08,45,4.20
2012,02,25,08,46,5.60
2012,02,25,08,47,7.40
2012,02,25,08,48,10.80
2012,02,25,08,49,10.30
2012,02,25,08,50,19.20
2012,02,25,08,51,10.70
2012,02,25,08,52,21.20
2012,02,25,08,53,14.20
2012,02,25,08,54,10.00
2012,02,25,08,55,11.90
2012,02,25,08,56,8.20
2012,02,25,08,57,12.20
2012,02,25,08,58,17.10
2012,02,25,08,59,9.00
2012,02,25,09,00,5.70
2012,02,25,09,01,8.20
2012,02,25,09,02,7.90
2012,02,25,09,03,16.70
2012,02,25,09,04,8.10
2012,02,25,09,05,8.90
2012,02,25,09,06,10.30
2012,02,25,09,07,10.80
2012,02,25,09,08,5.00
2012,02,25,09,09,4.60
2012,02,25,09,10,9.70
2012,02,25,09,11,11.40
2012,02,25,09,12,11.40
2012,02,25,09,13,9.10
2012,02,25,09,14,8.50
2012,02,25,09,15,7.50
2012,02,25,09,16,6.10
2012,02,25,09,17,7.00
2012,02,25,09,18,8.40
2012,02,25,09,19,7.80
2012,02,25,09,20,9.40
2012,02,25,09,21,12.00
2012,02,25,09,22,15.40
2012,02,25,09,23,13.60
2012,02,25,09,24,6.90
2012,02,25,09,25,7.60
2012,02,25,09,26,10.00
2012,02,25,09,27,14.30
2012,02,25,09,28,11.90
2012,02,25,09,29,7.10
2012,02,25,09,30,15.20
2012,02,25,09,31,12.80
2012,02,25,09,32,4.30
2012,02,25,09,33,11.70
2012,02,25,09,34,14.20
2012,02,25,09,35,13.30
2012,02,25,09,36,13.10
2012,02,25,09,37,10.50
2012,02,25,09,38,10.00
2012,02,25,09,39,10.70
2012,02,25,09,40,5.50
2012,02,25,09,41,7.80
2012,02,25,09,42,5.50
2012,02,25,09,43,14.20
2012,02,25,09,44,18.80
2012,02,25,09,45,10.90
2012,02,25,09,46,8.90
2012,02,25,09,47,12.00
2012,02,25,09,48,10.60
2012,02,25,09,49,6.10
2012,02,25,09,50,12.60
2012,02,25,09,51,16.20
2012,02,25,09,52,9.40
2012,02,25,09,53,9.00
2012,02,25,09,54,10.40
2012,02,25,09,55,11.80
2012,02,25,09,56,18.80
2012,02,25,09,57,13.10
2012,02,25,09,58,11.10
2012,02,25,09,59,10.50
2012,02,25,10,00,11.70
2012,02,25,10,01,6.70
2012,02,25,10,02,17.50
2012,02,25,10,03,11.70
2012,02,25,10,04,8.40
2012,02,25,10,05,11.80
2012,02,25,10,06,9.50
2012,02,25,10,07,9.60
2012,02,25,10,08,7.10
2012,02,25,10,09,3.10
2012,02,25,10,10,4.70
2012,02,25,10,11,7.80
2012,02,25,10,12,5.30
2012,02,25,10,13,10.50
2012,02,25,10,14,6.40
2012,02,25,10,15,9.00
2012,02,25,10,16,11.30
2012,02,25,10,17,13.40
2012,02,25,10,18,13.50
2012,02,25,10,19,5.50
2012,02,25,10,20,10.20
2012,02,25,10,21,13.00
2012,02,25,10,22,13.70
2012,02,25,10,23,7.00
2012,02,25,10,24,9.80
2012,02,25,10,25,18.10
2012,02,25,10,26,15.40
2012,02,25,10,27,12.50
2012,02,25,10,28,12.10
2012,02,25,10,29,14.00
2012,02,25,10,30,9.60
2012,02,25,10,31,13.30
2012,02,25,10,32,16.10
2012,02,25,10,33,11.00
2012,02,25,10,34,11.70
2012,02,25,10,35,14.60
2012,02,25,10,36,16.30
2012,02,25,10,37,15.40
2012,02,25,10,38,15.90
2012,02,25,10,39,13.90
2012,02,25,10,40,8.90
2012,02,25,10,41,20.90
2012,02,25,10,42,15.20
2012,02,25,10,43,14.10
2012,02,25,10,44,24.70
2012,02,25,10,45,10.90
2012,02,25,10,46,17.20
2012,02,25,10,47,11.90
2012,02,25,10,48,17.50
2012,02,25,10,49,12.20
2012,02,25,10,50,15.00
2012,02,25,10,51,10.60
2012,02,25,10,52,5.50
2012,02,25,10,53,7.20
2012,02,25,10,54,11.80
2012,02,25,10,55,12.90
2012,02,25,10,56,14.20
2012,02,25,10,57,16.00
2012,02,25,10,58,8.40
2012,02,25,10,59,18.70
2012,02,25,11,00,12.60
2012,02,25,11,01,12.80
2012,02,25,11,02,6.70
2012,02,25,11,03,7.60
2012,02,25,11,04,9.40
2012,02,25,11,05,6.90
2012,02,25,11,06,6.80
2012,02,25,11,07,8.40
2012,02,25,11,08,10.60
2012,02,25,11,09,5.40
2012,02,25,11,10,8.00
2012,02,25,11,11,11.70
2012,02,25,11,12,18.00
2012,02,25,11,13,13.20
2012,02,25,11,14,6.80
2012,02,25,11,15,8.80
2012,02,25,11,16,19.20
2012,02,25,11,17,9.30
2012,02,25,11,18,13.40
2012,02,25,11,19,9.60
2012,02,25,11,20,7.60
2012,02,25,11,21,8.80
2012,02,25,11,22,15.60
2012,02,25,11,23,8.20
2012,02,25,11,24,11.70
2012,02,25,11,25,9.00
2012,02,25,11,26,10.10
2012,02,25,11,27,4.30
2012,02,25,11,28,12.20
2012,02,25,11,29,7.70
2012,02,25,11,30,6.30
2012,02,25,11,31,6.60
2012,02,25,11,32,5.90
2012,02,25,11,33,13.10
2012,02,25,11,34,13.20
2012,02,25,11,35,5.60
2012,02,25,11,36,3.50
2012,02,25,11,37,5.20
2012,02,25,11,38,7.50
2012,02,25,11,39,14.00
2012,02,25,11,40,14.30
2012,02,25,11,41,12.10
2012,02,25,11,42,10.90
2012,02,25,11,43,16.10
2012,02,25,11,44,8.90
2012,02,25,11,45,14.80
2012,02,25,11,46,13.00
2012,02,25,11,47,10.30
2012,02,25,11,48,6.90
2012,02,25,11,49,6.50
2012,02,25,11,50,10.40
2012,02,25,11,51,7.30
2012,02,25,11,52,8.30
2012,02,25,11,53,14.30
2012,02,25,11,54,6.30
2012,02,25,11,55,4.10
2012,02,25,11,56,7.90
2012,02,25,11,57,10.00
2012,02,25,11,58,14.60
2012,02,25,11,59,17.70
2012,02,25,12,00,16.10
2012,02,25,12,01,13.70
2012,02,25,12,02,11.90
2012,02,25,12,03,7.10
2012,02,25,12,04,6.60
2012,02,25,12,05,9.40
2012,02,25,12,06,17.90
2012,02,25,12,07,18.70
2012,02,25,12,08,11.90
2012,02,25,12,09,10.80
2012,02,25,12,10,16.30
2012,02,25,12,11,9.90
2012,02,25,12,12,7.20
2012,02,25,12,13,8.50
2012,02,25,12,14,13.80
2012,02,25,12,15,15.80
2012,02,25,12,16,14.70
2012,02,25,12,17,13.70
2012,02,25,12,18,7.30
2012,02,25,12,19,12.60
2012,02,25,12,20,11.10
2012,02,25,12,21,20.90
2012,02,25,12,22,9.80
2012,02,25,12,23,16.80
2012,02,25,12,24,8.30
2012,02,25,12,25,13.40
2012,02,25,12,26,7.70
2012,02,25,12,27,15.70
2012,02,25,12,28,10.30
2012,02,25,12,29,15.90
2012,02,25,12,30,10.50
2012,02,25,12,31,13.10
2012,02,25,12,32,17.10
2012,02,25,12,33,9.70
2012,02,25,12,34,9.30
2012,02,25,12,35,20.90
2012,02,25,12,36,9.80
2012,02,25,12,37,14.30
2012,02,25,12,38,10.20
2012,02,25,12,39,7.10
2012,02,25,12,40,9.50
2012,02,25,12,41,15.50
2012,02,25,12,42,17.90
2012,02,25,12,43,15.70
2012,02,25,12,44,13.40
2012,02,25,12,45,14.00
2012,02,25,12,46,11.80
2012,02,25,12,47,9.80
2012,02,25,12,48,21.20
2012,02,25,12,49,21.10
2012,02,25,12,50,13.30
2012,02,25,12,51,12.50
2012,02,25,12,52,10.60
2012,02,25,12,53,19.60
2012,02,25,12,54,14.70
2012,02,25,12,55,16.00
2012,02,25,12,56,19.10
2012,02,25,12,57,9.00
2012,02,25,12,58,10.70
2012,02,25,12,59,10.60
2012,02,25,13,00,8.50
2012,02,25,13,01,17.10
2012,02,25,13,02,20.20
2012,02,25,13,03,15.00
2012,02,25,13,04,17.20
2012,02,25,13,05,14.40
2012,02,25,13,06,14.60
2012,02,25,13,07,20.80
2012,02,25,13,08,16.10
2012,02,25,13,09,13.30
2012,02,25,13,10,9.10
2012,02,25,13,11,11.00
2012,02,25,13,12,14.70
2012,02,25,13,13,14.30
2012,02,25,13,14,14.60
2012,02,25,13,15,16.70
2012,02,25,13,16,15.40
2012,02,25,13,17,13.80
2012,02,25,13,18,16.30
2012,02,25,13,19,20.40
2012,02,25,13,20,16.50
2012,02,25,13,21,15.70
2012,02,25,13,22,11.30
2012,02,25,13,23,11.30
2012,02,25,13,24,16.20
2012,02,25,13,25,24.50
2012,02,25,13,26,19.20
2012,02,25,13,27,20.60
2012,02,25,13,28,16.00
2012,02,25,13,29,17.10
2012,02,25,13,30,11.30
2012,02,25,13,31,18.50
2012,02,25,13,32,21.60
2012,02,25,13,33,22.00
2012,02,25,13,34,22.00
2012,02,25,13,35,23.10
2012,02,25,13,36,14.80
2012,02,25,13,37,21.60
2012,02,25,13,38,21.20
2012,02,25,13,39,18.40
2012,02,25,13,40,10.90
2012,02,25,13,41,13.60
2012,02,25,13,42,14.10
2012,02,25,13,43,9.70
2012,02,25,13,44,14.40
2012,02,25,13,45,16.40
2012,02,25,13,46,21.10
2012,02,25,13,47,23.50
2012,02,25,13,48,13.70
2012,02,25,13,49,18.30
2012,02,25,13,50,23.80
2012,02,25,13,51,16.40
2012,02,25,13,52,17.20
2012,02,25,13,53,16.90
2012,02,25,13,54,24.80
2012,02,25,13,55,15.50
2012,02,25,13,56,22.50
2012,02,25,13,57,14.90
2012,02,25,13,58,25.60
2012,02,25,13,59,26.00
2012,02,25,14,00,18.10
2012,02,25,14,01,21.60
2012,02,25,14,02,22.20
2012,02,25,14,03,27.90
2012,02,25,14,04,22.20
2012,02,25,14,05,17.50
2012,02,25,14,06,17.60
2012,02,25,14,07,17.70
2012,02,25,14,08,15.70
2012,02,25,14,09,12.20
2012,02,25,14,10,10.70
2012,02,25,14,11,23.00
2012,02,25,14,12,20.10
2012,02,25,14,13,16.30
2012,02,25,14,14,15.20
2012,02,25,14,15,17.40
2012,02,25,14,16,17.50
2012,02,25,14,17,16.90
2012,02,25,14,18,17.20
2012,02,25,14,19,20.00
2012,02,25,14,20,17.60
2012,02,25,14,21,17.80
2012,02,25,14,22,21.20
2012,02,25,14,23,16.70
2012,02,25,14,24,13.00
2012,02,25,14,25,13.90
2012,02,25,14,26,15.80
2012,02,25,14,27,14.80
2012,02,25,14,28,18.80
2012,02,25,14,29,12.50
2012,02,25,14,30,16.00
2012,02,25,14,31,16.20
2012,02,25,14,32,18.30
2012,02,25,14,33,6.10
2012,02,25,14,34,10.50
2012,02,25,14,35,9.00
2012,02,25,14,36,13.10
2012,02,25,14,37,17.90
2012,02,25,14,38,11.30
2012,02,25,14,39,6.90
2012,02,25,14,40,14.90
2012,02,25,14,41,17.20
2012,02,25,14,42,16.50
2012,02,25,14,43,13.90
2012,02,25,14,44,10.10
2012,02,25,14,45,12.20
2012,02,25,14,46,9.10
2012,02,25,14,47,9.50
2012,02,25,14,48,8.70
2012,02,25,14,49,15.20
2012,02,25,14,50,13.00
2012,02,25,14,51,10.40
2012,02,25,14,52,15.40
2012,02,25,14,53,11.30
2012,02,25,14,54,16.40
2012,02,25,14,55,14.40
2012,02,25,14,56,13.40
2012,02,25,14,57,8.40
2012,02,25,14,58,9.00
2012,02,25,14,59,13.40
2012,02,25,15,00,6.30
2012,02,25,15,01,14.40
2012,02,25,15,02,12.90
2012,02,25,15,03,13.60
2012,02,25,15,04,12.60
2012,02,25,15,05,18.80
2012,02,25,15,06,8.80
2012,02,25,15,07,12.50
2012,02,25,15,08,4.80
2012,02,25,15,09,6.90
2012,02,25,15,10,8.10
2012,02,25,15,11,14.40
2012,02,25,15,12,5.10
2012,02,25,15,13,8.90
2012,02,25,15,14,14.60
2012,02,25,15,15,8.30
2012,02,25,15,16,8.50
2012,02,25,15,17,14.60
2012,02,25,15,18,16.20
2012,02,25,15,19,13.70
2012,02,25,15,20,14.60
2012,02,25,15,21,13.40
2012,02,25,15,22,15.60
2012,02,25,15,23,21.90
2012,02,25,15,24,18.40
2012,02,25,15,25,10.50
2012,02,25,15,26,18.70
2012,02,25,15,27,12.10
2012,02,25,15,28,10.50
2012,02,25,15,29,10.00
2012,02,25,15,30,13.40
2012,02,25,15,31,15.00
2012,02,25,15,32,11.90
2012,02,25,15,33,11.80
2012,02,25,15,34,9.60
2012,02,25,15,35,11.70
2012,02,25,15,36,12.80
2012,02,25,15,37,11.30
2012,02,25,15,38,11.50
2012,02,25,15,39,20.20
2012,02,25,15,40,9.30
2012,02,25,15,41,14.80
2012,02,25,15,42,7.30
2012,02,25,15,43,12.60
2012,02,25,15,44,8.60
2012,02,25,15,45,11.50
2012,02,25,15,46,8.70
2012,02,25,15,47,11.80
2012,02,25,15,48,16.90
2012,02,25,15,49,15.00
2012,02,25,15,50,18.50
2012,02,25,15,51,8.50
2012,02,25,15,52,20.50
2012,02,25,15,53,21.20
2012,02,25,15,54,17.50
2012,02,25,15,55,21.20
2012,02,25,15,56,13.40
2012,02,25,15,57,6.80
2012,02,25,15,58,8.40
2012,02,25,15,59,17.40
2012,02,25,16,00,8.40
2012,02,25,16,01,14.10
2012,02,25,16,02,16.10
2012,02,25,16,03,10.70
2012,02,25,16,04,16.60
2012,02,25,16,05,4.90
2012,02,25,16,06,16.60
2012,02,25,16,07,7.30
2012,02,25,16,08,14.60
2012,02,25,16,09,16.80
2012,02,25,16,10,14.00
2012,02,25,16,11,16.90
2012,02,25,16,12,14.20
2012,02,25,16,13,15.40
2012,02,25,16,14,11.00
2012,02,25,16,15,9.10
2012,02,25,16,16,14.80
2012,02,25,16,17,16.10
2012,02,25,16,18,18.20
2012,02,25,16,19,11.30
2012,02,25,16,20,12.50
2012,02,25,16,21,10.80
2012,02,25,16,22,13.60
2012,02,25,16,23,16.60
2012,02,25,16,24,14.60
2012,02,25,16,25,18.60
2012,02,25,16,26,8.30
2012,02,25,16,27,15.90
2012,02,25,16,28,18.90
2012,02,25,16,29,18.40
2012,02,25,16,30,15.80
2012,02,25,16,31,11.90
2012,02,25,16,32,17.60
2012,02,25,16,33,16.30
2012,02,25,16,34,15.80
2012,02,25,16,35,20.80
2012,02,25,16,36,8.70
2012,02,25,16,37,10.10
2012,02,25,16,38,10.00
2012,02,25,16,39,7.20
2012,02,25,16,40,11.70
2012,02,25,16,41,15.60
2012,02,25,16,42,10.40
2012,02,25,16,43,7.70
2012,02,25,16,44,11.80
2012,02,25,16,45,12.00
2012,02,25,16,46,5.80
2012,02,25,16,47,11.10
2012,02,25,16,48,14.10
2012,02,25,16,49,8.30
2012,02,25,16,50,14.60
2012,02,25,16,51,12.70
2012,02,25,16,52,15.40
2012,02,25,16,53,9.70
2012,02,25,16,54,10.80
2012,02,25,16,55,11.70
2012,02,25,16,56,13.40
2012,02,25,16,57,14.00
2012,02,25,16,58,9.00
2012,02,25,16,59,3.50
2012,02,25,17,00,7.10
2012,02,25,17,01,10.60
2012,02,25,17,02,5.90
2012,02,25,17,03,13.00
2012,02,25,17,04,15.00
2012,02,25,17,05,15.60
2012,02,25,17,06,8.00
2012,02,25,17,07,7.60
2012,02,25,17,08,11.60
2012,02,25,17,09,14.10
2012,02,25,17,10,11.60
2012,02,25,17,11,8.10
2012,02,25,17,12,8.30
2012,02,25,17,13,13.80
2012,02,25,17,14,13.90
2012,02,25,17,15,14.90
2012,02,25,17,16,13.90
2012,02,25,17,17,9.50
2012,02,25,17,18,11.10
2012,02,25,17,19,12.60
2012,02,25,17,20,8.50
2012,02,25,17,21,5.00
2012,02,25,17,22,6.10
2012,02,25,17,23,7.20
2012,02,25,17,24,14.70
2012,02,25,17,25,8.70
2012,02,25,17,26,5.50
2012,02,25,17,27,9.10
2012,02,25,17,28,9.30
2012,02,25,17,29,10.60
2012,02,25,17,30,10.90
2012,02,25,17,31,12.60
2012,02,25,17,32,18.60
2012,02,25,17,33,16.70
2012,02,25,17,34,11.10
2012,02,25,17,35,6.70